Temperature
18 18 18 18 18 18 18 18 18 18 18 18 18 18 18 18 18 18 18 18 18 18 18 18 18 18 17 17 17 17 17 17 17 17 17 17 17 17 17 16 16 16 16
18 18 18 18 18 18 18 18 18 18 18 18 18 18 18 18 18 18 18 18 18 18 18 18 18 18 17 17 17 17 17 17 17 17 17 17 17 17 17 16 16 16 16
18 18 18 18 18 18 18 18 18 18 18 18 18 18 18 18 18 18 18 18 17 18 18 18 18 17 17 17 17 17 17 17 17 17 17 17 17 17 16 16 16 16 16
19 18 18 18 18 18 18 18 18 18 18 18 18 18 18 18 18 18 18 17 17 17 17 18 18 18 17 17 17 17 17 17 17 17 17 17 17 16 16 16 16 16 16
19 18 18 18 18 18 18 18 18 18 18 18 18 18 18 18 17 18 18 17 17 17 17 17 17 17 17 17 17 17 17 17 17 17 17 17 17 16 16 16 16 16 16
19 18 18 18 18 18 18 18 17 17 17 17 18 18 18 18 18 18 18 18 17 17 17 17 17 17 17 17 17 17 17 17 17 17 17 17 17 17 16 16 16 16 16
18 18 18 18 18 18 18 18 17 17 17 17 18 18 18 18 18 18 17 18 17 17 17 17 17 17 17 17 17 17 17 17 17 17 17 17 17 17 17 16 16 16 16
18 18 18 18 18 18 18 18 17 17 17 17 18 18 19 18 18 18 17 17 17 17 17 17 17 16 17 16 16 17 17 17 16 16 16 17 17 17 16 16 16 16 16
18 18 18 18 18 18 18 18 18 17 17 17 17 18 19 19 18 18 17 17 17 17 17 17 17 16 16 16 16 16 16 16 16 16 16 16 16 16 16 16 16 16 16
18 18 18 18 18 18 18 18 18 17 17 17 17 17 18 18 18 18 18 17 17 17 17 17 17 16 16 16 16 16 16 16 16 16 16 16 16 16 16 16 16 16 16
18 18 18 18 18 18 18 18 18 18 17 17 17 17 17 17 18 18 18 17 17 17 17 16 16 16 16 16 16 16 16 16 16 16 16 16 16 16 16 16 16 16 15
18 18 18 18 18 18 18 18 18 17 17 17 17 17 17 17 18 17 17 17 17 17 16 16 16 16 16 16 16 16 16 16 16 16 15 15 16 16 16 15 15 15 15
18 18 18 18 18 18 18 18 17 17 17 17 17 17 17 17 17 17 17 17 17 17 16 16 16 16 16 15 15 16 16 16 15 15 15 15 15 15 15 15 15 15 15
18 18 18 18 18 18 17 17 17 17 17 17 17 17 17 17 17 17 17 16 17 17 16 16 16 16 15 15 15 15 15 15 15 15 15 15 15 15 15 15 15 15 15
18 18 18 18 18 17 17 17 17 17 17 17 17 17 16 16 16 16 16 16 16 17 17 16 16 15 15 15 15 15 15 15 15 15 15 15 15 15 15 15 15 15 14
18 17 17 17 17 17 17 17 17 17 17 17 17 16 16 16 16 16 16 16 16 16 16 16 15 15 15 15 15 15 15 15 15 15 15 15 15 14 14 14 14 14 14
18 17 17 17 17 17 17 17 17 16 16 16 16 16 16 16 16 16 16 16 16 16 16 16 15 15 15 15 15 14 14 14 14 14 14 14 14 14 14 14 14 14 14
18 17 17 17 17 17 16 16 16 16 16 16 16 16 16 16 15 15 15 15 15 15 15 15 15 15 14 14 14 14 14 14 14 14 14 14 14 14 14 14 14 14 14
18 17 17 17 17 16 16 16 16 16 16 16 16 15 15 15 15 15 15 15 15 15 15 15 15 14 14 14 14 14 14 14 14 14 14 14 14 14 14 14 14 14 14
18 17 17 17 17 16 16 16 16 16 16 15 15 15 15 15 15 15 15 14 14 14 14 14 15 14 14 14 14 14 14 14 14 14 14 14 14 14 14 14 13 13 13
17 17 17 17 16 16 16 16 16 16 15 15 15 15 15 15 15 14 14 14 14 14 14 14 14 14 14 14 14 14 14 14 14 13 13 13 14 13 13 13 13 13 13
17 17 16 16 16 16 16 16 16 15 15 15 15 14 14 14 14 14 14 14 14 14 14 14 14 14 14 14 13 13 13 13 13 13 13 13 13 13 13 13 13 13 13
16 16 16 16 16 16 16 16 15 15 14 14 14 14 14 14 14 14 14 14 14 14 13 13 13 13 13 13 13 13 13 13 13 13 13 13 13 13 13 13 13 13 13
16 16 16 16 15 15 15 15 15 15 14 14 14 14 14 14 14 14 13 13 13 13 13 13 13 13 13 13 13 13 13 13 13 13 13 13 13 13 13 13 13 13 13
16 16 16 15 15 15 15 15 15 14 14 14 14 14 14 13 13 13 13 13 13 13 13 13 13 13 13 13 13 13 12 13 13 13 13 13 13 13 13 13 13 13 13
15 15 15 15 15 15 15 15 14 14 14 14 14 14 14 13 13 13 13 12 12 13 13 13 12 12 12 12 12 12 12 12 12 13 13 12 13 13 13 13 13 13 13
Wind_Speed
1 1 1 1 0 1 1 1 1 1 1 2 2 2 1 1 1 1 4 7 6 7 7 8 8 8 9 9 9 9 9 10 11 12 12 12 11 11 11 11 11 11 11
1 1 1 0 0 1 1 0 0 0 0 1 1 1 1 1 1 1 2 6 8 7 6 6 7 7 8 8 9 9 9 9 10 11 11 11 12 12 12 11 11 12 11
1 1 0 0 1 1 1 0 1 1 1 2 1 1 1 0 1 1 1 2 5 7 6 5 5 6 7 8 9 9 8 8 9 9 10 10 11 12 12 12 12 12 12
1 1 1 0 0 0 1 1 0 1 1 1 1 1 1 1 1 1 1 2 2 3 6 7 5 5 5 7 8 8 8 8 8 8 9 10 11 12 12 13 12 12 12
1 1 1 1 0 0 0 0 1 0 1 0 1 1 1 1 1 1 1 1 2 2 3 6 7 6 5 6 7 8 8 8 8 8 8 10 10 11 12 12 12 12 13
1 1 1 1 1 1 0 0 1 0 1 1 0 0 1 1 1 1 1 1 2 2 3 3 5 6 7 6 6 7 7 7 7 7 7 8 9 10 10 12 12 12 11
1 1 1 1 1 1 1 1 1 2 1 1 1 1 2 2 1 1 0 0 1 2 3 3 4 3 5 7 7 7 7 7 6 6 6 6 8 9 9 10 11 11 10
1 2 1 2 1 1 1 1 2 2 1 2 2 2 2 2 1 1 1 1 1 1 2 3 2 3 3 3 5 7 6 6 6 6 5 5 5 6 8 9 9 9 10
2 2 2 1 1 2 2 2 2 2 2 1 1 2 2 0 0 2 1 1 0 1 1 1 2 2 3 3 3 6 6 6 6 5 5 5 5 5 6 6 8 9 9
3 2 2 2 2 1 1 2 2 2 2 2 1 1 2 1 2 1 2 1 1 1 1 1 1 2 3 3 3 3 5 5 5 5 5 5 4 4 4 5 5 6 6
2 2 2 2 2 2 1 2 1 2 2 2 2 1 1 1 3 2 2 1 1 1 1 1 1 1 2 2 3 3 5 5 4 5 4 4 4 4 4 4 4 4 5
2 2 3 3 3 2 2 2 2 3 2 3 3 2 2 2 2 2 2 3 2 1 1 1 2 1 1 2 2 4 5 5 4 4 4 4 4 4 4 4 4 4 4
2 2 2 3 2 2 2 2 2 2 2 3 3 3 2 2 2 3 3 3 2 2 1 1 1 1 1 2 2 5 6 6 5 5 4 3 4 4 4 4 4 3 3
2 2 3 3 3 3 3 2 2 2 2 3 3 3 2 2 2 3 3 3 3 3 2 2 1 1 1 2 2 5 5 7 6 6 5 4 4 4 4 4 4 3 3
3 3 3 3 3 3 3 3 2 2 3 3 2 2 2 2 2 3 3 4 4 4 3 2 1 1 1 2 2 3 4 6 7 6 6 5 5 5 5 5 5 4 4
3 3 3 3 3 3 3 3 2 2 2 1 1 1 2 2 2 2 3 4 4 5 4 2 2 1 1 2 2 3 4 7 8 7 6 6 6 6 7 7 6 5 5
4 4 4 3 3 3 3 3 2 2 2 1 2 1 2 2 2 2 2 3 3 3 4 3 2 1 1 2 1 2 3 4 5 9 8 7 7 8 8 8 7 7 6
5 5 4 4 4 3 3 3 3 3 3 3 3 2 3 2 2 3 2 3 2 3 4 3 3 2 2 2 2 3 3 3 3 7 9 8 9 9 9 9 8 8 7
4 4 4 4 4 4 4 4 4 4 4 3 3 3 3 3 3 2 3 3 3 3 3 4 4 2 2 2 3 3 3 2 4 5 9 9 10 10 10 10 9 9 8
5 5 5 5 5 5 5 5 5 5 4 4 4 4 4 4 3 3 3 3 3 3 3 4 4 3 2 2 3 3 3 3 4 3 4 5 8 11 10 10 10 10 10
5 5 5 5 5 6 5 5 5 5 5 5 5 5 4 3 3 4 4 3 4 4 4 4 4 4 3 3 3 4 4 3 4 3 3 3 4 5 7 9 10 10 10
4 5 5 5 6 5 2 2 5 5 5 5 5 5 5 5 4 5 5 5 5 5 5 5 5 5 5 5 4 4 4 4 4 3 4 4 3 4 4 5 7 9 9
4 5 5 6 5 4 4 4 5 6 5 5 5 5 5 4 5 5 5 7 6 6 7 7 7 7 6 5 5 6 5 5 5 3 4 5 4 4 4 4 9 10 10
4 5 5 5 5 4 6 5 6 7 6 6 6 6 5 5 4 5 6 5 5 5 6 7 7 7 6 4 5 6 6 6 5 4 4 5 4 5 4 4 9 11 11
4 4 4 4 4 4 5 6 6 5 5 6 5 5 5 5 2 3 5 5 5 5 4 4 5 5 5 5 5 4 5 5 5 4 4 5 5 5 4 4 7 12 12
4 4 3 2 3 3 4 5 6 5 5 5 4 5 3 3 2 3 5 5 5 5 5 4 5 6 6 6 7 7 6 5 5 4 3 4 5 4 4 4 4 6 8
Wind_Direction
117 105 92 74 92 94 133 167 164 178 196 178 172 165 183 208 226 215 152 149 171 190 197 202 207 206 203 200 197 197 201 203 206 208 209 212 213 212 215 217 219 219 218
119 127 121 85 58 80 49 38 47 135 176 129 141 142 196 205 192 212 191 162 169 177 185 198 206 205 203 202 200 202 206 209 211 212 214 214 214 215 218 222 224 223 221
128 172 151 190 49 72 98 147 98 120 141 139 132 137 169 185 170 157 188 179 164 164 170 181 191 200 202 202 200 203 205 208 211 212 213 214 216 217 220 224 228 226 222
161 205 184 197 125 164 163 142 174 120 110 131 136 126 118 127 149 188 183 175 177 170 163 168 179 186 187 195 198 200 200 204 207 213 215 217 218 221 224 226 228 228 225
156 190 175 98 207 179 227 214 126 171 148 124 163 154 154 133 147 181 187 175 172 183 183 160 177 186 191 197 203 207 205 204 208 215 219 219 221 223 225 224 226 228 226
163 217 169 164 201 180 205 13 75 29 283 251 269 110 175 194 225 191 226 185 174 188 197 200 195 185 185 193 200 203 201 203 204 210 220 225 225 227 228 224 226 227 227
175 258 286 184 216 177 194 205 204 180 207 195 209 197 181 186 192 176 222 215 169 185 192 210 222 210 185 186 195 199 204 205 208 212 219 229 232 228 228 228 226 225 223
201 212 230 233 200 175 173 194 216 231 212 213 245 240 216 171 184 168 163 170 201 192 195 202 199 207 221 202 169 186 200 209 212 216 223 226 228 225 225 222 218 217 219
203 228 228 247 220 213 177 191 209 229 245 228 245 268 271 244 163 171 174 159 169 269 245 204 207 215 218 212 198 183 194 205 212 214 217 222 225 223 218 216 218 214 217
207 214 216 217 233 230 191 216 191 237 254 249 193 271 303 327 283 236 195 168 165 278 294 275 238 211 211 201 187 168 175 191 207 214 220 223 220 214 211 211 212 202 207
200 205 208 211 224 236 237 257 233 243 248 267 264 243 238 220 252 266 265 262 258 279 297 295 288 252 227 205 201 161 162 184 195 204 211 210 207 205 203 203 204 204 210
194 192 208 216 224 235 232 237 240 226 252 272 276 262 255 257 261 261 267 263 278 290 298 296 271 253 235 211 196 144 169 175 183 191 200 205 204 201 205 205 206 213 218
201 192 215 222 231 235 241 244 230 262 252 250 255 262 266 269 284 276 269 280 284 272 254 263 267 248 228 219 182 162 175 177 183 186 198 200 190 190 196 197 198 200 205
226 196 205 218 229 238 243 238 248 249 252 249 253 265 262 269 268 267 270 276 273 267 255 267 264 234 239 228 184 184 177 173 185 189 193 192 185 190 197 200 202 199 200
218 199 203 210 220 231 245 246 248 260 261 257 253 236 250 268 262 267 264 258 267 273 272 261 253 222 232 234 192 202 190 167 182 191 193 194 191 198 203 204 208 206 203
214 206 206 212 218 225 230 242 236 237 248 259 266 282 269 274 287 273 262 261 269 274 280 275 261 267 274 253 178 222 206 171 181 195 204 208 209 212 208 206 209 209 208
205 207 208 207 207 209 212 220 235 233 244 260 272 261 266 286 275 271 270 271 270 269 264 278 282 252 227 261 230 236 225 208 190 192 205 216 221 219 211 209 210 210 210
203 202 202 202 208 211 220 225 233 230 234 238 245 254 256 253 262 274 273 269 276 275 264 272 280 259 235 233 229 240 237 225 221 184 199 213 218 218 214 211 211 210 212
201 204 205 210 216 220 226 228 231 235 237 240 243 246 249 253 261 273 267 265 262 258 263 265 267 263 253 243 243 241 239 243 239 200 196 203 207 211 210 212 213 212 212
198 204 209 214 218 221 225 230 231 234 238 239 241 244 247 246 253 263 262 266 268 265 255 259 266 258 248 245 246 250 247 231 248 242 225 206 196 203 204 208 212 215 215
208 209 215 216 223 225 225 229 234 233 235 239 241 245 245 249 280 278 276 270 265 264 261 261 263 266 259 260 254 259 258 250 239 245 244 232 206 208 207 207 210 214 216
218 217 220 224 229 233 179 206 245 244 240 240 243 248 245 231 240 247 263 270 274 264 273 277 270 272 265 258 258 259 265 258 251 231 243 242 237 233 218 215 188 196 207
223 224 226 225 229 222 180 204 236 249 245 245 245 246 253 247 238 257 243 226 237 242 251 266 276 281 278 268 257 256 257 264 265 263 252 249 238 246 236 203 170 186 199
227 233 235 234 236 218 183 208 231 240 247 244 242 242 248 256 259 269 267 261 257 250 247 254 266 274 280 281 260 256 257 255 258 248 244 257 251 246 241 218 183 191 199
223 228 229 235 238 225 188 207 233 240 239 242 240 240 245 253 254 267 264 265 265 265 242 237 255 265 281 275 268 263 254 252 259 252 230 251 257 254 237 228 200 190 198
218 226 225 230 230 224 172 193 226 243 245 250 241 234 213 236 241 241 251 257 262 270 269 257 245 246 252 247 233 245 255 255 260 259 233 240 251 251 250 231 218 199 204
Height
1541 1541 1541 1541 1541 1541 1541 1540 1540 1539 1539 1540 1541 1542 1543 1544 1545 1546 1546 1546 1547 1547 1548 1548 1549 1549 1550 1551 1552 1553 1554 1555 1556 1557 1558 1559 1560 1561 1562 1563 1564 1565 1565
1541 1541 1541 1541 1541 1541 1541 1540 1540 1538 1538 1539 1540 1542 1543 1544 1544 1545 1545 1545 1546 1546 1547 1547 1548 1549 1549 1550 1551 1552 1552 1553 1554 1555 1556 1557 1558 1559 1560 1561 1562 1563 1563
1541 1541 1541 1541 1541 1541 1541 1540 1540 1539 1539 1540 1541 1542 1543 1543 1543 1544 1544 1545 1545 1545 1546 1546 1547 1547 1548 1549 1549 1550 1551 1552 1552 1553 1554 1554 1555 1556 1558 1558 1559 1560 1561
1541 1541 1541 1542 1541 1541 1541 1541 1540 1540 1540 1540 1541 1542 1542 1542 1542 1543 1543 1543 1544 1544 1545 1545 1545 1546 1546 1547 1548 1548 1549 1550 1551 1551 1552 1552 1553 1554 1555 1556 1557 1557 1558
1540 1541 1541 1541 1541 1541 1541 1541 1541 1541 1540 1540 1541 1541 1542 1542 1542 1542 1542 1543 1543 1543 1544 1543 1544 1544 1545 1545 1546 1546 1547 1548 1548 1549 1549 1550 1551 1551 1552 1553 1553 1554 1554
1540 1540 1541 1540 1541 1541 1540 1540 1540 1540 1540 1540 1541 1541 1542 1541 1541 1541 1542 1542 1542 1542 1542 1543 1543 1543 1543 1543 1544 1545 1545 1545 1546 1546 1547 1548 1548 1548 1549 1549 1550 1551 1551
1540 1540 1540 1540 1540 1540 1540 1540 1540 1539 1540 1540 1541 1541 1541 1541 1540 1540 1541 1541 1541 1540 1541 1540 1541 1542 1542 1542 1542 1542 1543 1543 1544 1544 1544 1545 1545 1545 1546 1546 1547 1547 1548
1539 1540 1539 1540 1539 1539 1538 1539 1539 1539 1540 1540 1541 1541 1541 1541 1540 1540 1540 1540 1540 1540 1540 1539 1539 1539 1540 1541 1540 1540 1540 1541 1541 1541 1542 1542 1542 1543 1543 1544 1544 1545 1545
1539 1539 1539 1539 1539 1539 1538 1538 1538 1538 1539 1539 1539 1540 1540 1539 1540 1540 1539 1539 1538 1538 1538 1538 1538 1538 1538 1538 1538 1538 1538 1538 1539 1539 1539 1539 1539 1540 1541 1541 1541 1542 1542
1538 1538 1538 1538 1538 1538 1537 1537 1537 1538 1538 1539 1539 1538 1539 1539 1539 1539 1539 1538 1538 1537 1537 1537 1537 1536 1536 1536 1536 1536 1536 1536 1536 1536 1537 1537 1537 1537 1538 1538 1539 1539 1540
1537 1537 1537 1537 1537 1537 1536 1536 1536 1536 1537 1537 1538 1538 1538 1538 1538 1538 1537 1537 1537 1536 1536 1535 1535 1535 1534 1534 1534 1533 1533 1534 1534 1534 1534 1535 1535 1535 1535 1536 1536 1537 1537
1536 1536 1536 1536 1536 1536 1535 1535 1535 1535 1535 1535 1535 1536 1537 1537 1537 1536 1536 1535 1535 1535 1534 1533 1533 1532 1532 1532 1532 1531 1531 1531 1531 1532 1532 1532 1533 1533 1533 1533 1534 1534 1535
1535 1535 1535 1534 1535 1534 1534 1534 1533 1534 1533 1533 1533 1534 1535 1535 1535 1535 1534 1534 1533 1533 1532 1531 1531 1531 1530 1530 1530 1529 1529 1529 1529 1529 1530 1530 1530 1531 1531 1531 1531 1532 1532
1533 1533 1533 1533 1533 1533 1533 1532 1533 1532 1532 1532 1532 1532 1532 1533 1533 1533 1533 1532 1531 1531 1531 1530 1529 1529 1528 1528 1528 1527 1527 1527 1527 1527 1528 1528 1528 1529 1529 1529 1529 1529 1530
1530 1531 1531 1531 1531 1531 1531 1531 1531 1530 1531 1530 1530 1530 1530 1531 1530 1530 1530 1530 1531 1529 1529 1528 1528 1527 1526 1526 1525 1525 1525 1525 1525 1525 1525 1526 1526 1526 1527 1527 1527 1527 1527
1528 1528 1529 1529 1529 1529 1529 1529 1529 1529 1529 1528 1528 1527 1527 1528 1528 1528 1528 1527 1528 1527 1526 1526 1525 1525 1524 1524 1523 1523 1523 1522 1522 1523 1523 1523 1523 1524 1524 1525 1525 1525 1525
1526 1526 1526 1527 1527 1527 1527 1527 1528 1527 1527 1527 1527 1526 1526 1526 1526 1526 1526 1525 1525 1525 1524 1524 1523 1522 1521 1521 1521 1521 1521 1520 1520 1520 1520 1520 1521 1521 1521 1522 1523 1523 1523
1523 1524 1524 1524 1525 1525 1525 1525 1526 1525 1525 1525 1525 1524 1524 1524 1524 1524 1523 1523 1523 1522 1522 1521 1521 1520 1519 1519 1518 1518 1519 1519 1518 1518 1517 1517 1517 1518 1519 1519 1520 1520 1521
1521 1522 1522 1522 1522 1522 1522 1523 1523 1523 1523 1523 1523 1523 1522 1522 1522 1521 1521 1521 1520 1520 1520 1519 1519 1518 1517 1517 1516 1516 1516 1516 1516 1515 1514 1514 1514 1515 1516 1516 1517 1518 1518
1518 1519 1519 1519 1519 1519 1520 1520 1520 1520 1520 1520 1520 1520 1520 1520 1520 1519 1519 1518 1518 1518 1517 1517 1516 1516 1515 1514 1514 1514 1514 1513 1513 1513 1512 1512 1511 1512 1513 1513 1514 1515 1515
1515 1515 1515 1515 1516 1517 1517 1517 1517 1518 1517 1517 1518 1518 1518 1517 1517 1517 1517 1516 1515 1515 1515 1514 1514 1513 1513 1512 1511 1511 1511 1511 1510 1510 1510 1510 1510 1510 1510 1510 1510 1511 1512
1512 1512 1512 1513 1513 1514 1514 1514 1514 1514 1514 1514 1514 1514 1514 1514 1514 1513 1513 1512 1512 1512 1512 1511 1511 1510 1509 1509 1508 1508 1508 1508 1508 1508 1507 1507 1508 1508 1508 1507 1507 1508 1509
1509 1509 1509 1509 1510 1510 1510 1510 1511 1511 1512 1511 1511 1511 1512 1512 1511 1510 1509 1509 1508 1508 1508 1508 1508 1506 1506 1506 1505 1505 1505 1504 1504 1504 1504 1504 1505 1505 1505 1505 1505 1505 1505
1506 1506 1506 1506 1506 1506 1506 1507 1507 1508 1509 1508 1508 1508 1508 1507 1507 1506 1506 1506 1505 1504 1504 1504 1503 1503 1502 1502 1501 1502 1501 1501 1500 1500 1500 1501 1501 1501 1502 1502 1501 1502 1502
1502 1503 1503 1502 1502 1503 1503 1504 1504 1505 1505 1505 1505 1504 1504 1504 1502 1502 1502 1502 1501 1501 1501 1500 1499 1499 1498 1498 1498 1498 1497 1498 1497 1497 1497 1498 1498 1498 1498 1498 1498 1498 1499
1499 1500 1500 1499 1499 1499 1499 1500 1501 1501 1502 1502 1501 1501 1500 1500 1499 1498 1498 1499 1498 1498 1497 1497 1496 1495 1495 1494 1494 1494 1494 1494 1494 1494 1494 1494 1494 1494 1495 1495 1495 1496 1496